Weather History for Hartford, CT

Change the Weather History Date:

Friday, March 8, 2013

  Actual Average Record
Temperature  
Mean Temperature 36 °F -  
Max Temperature 41 °F 43 °F 66 °F (2012)
Min Temperature 32 °F 23 °F 8 °F (1984)
Degree Days  
Heating Degree Days 28    
Moisture  
Dew Point 30 °F    
Average Humidity 84    
Maximum Humidity 96    
Minimum Humidity 53    
Precipitation  
Precipitation 0.22 in - - ()
Sea Level Pressure  
Sea Level Pressure 30.02 in    
Wind  
Wind Speed 12 mph (North)    
Max Wind Speed 16 mph    
Max Gust Speed 24 mph    
Visibility 4 miles    
Events Fog , Snow    
Averages and records for this station are not official NWS values.
T = Trace of Precipitation, MM = Missing Value Source: NWS Daily Summary

Daily Weather History Graph

Daily Weather History Graph

Search for Another Location

Airport:

Trip Planner

Search our weather history database for the weather conditions in past years. The results will help you decide how hot, cold, wet, or windy it might be!

Date:

Astronomy

Mar. 08, 2013 Rise Set
Actual Time 6:13 AM EST 5:49 PM EST
Civil Twilight 5:46 AM EST 6:17 PM EST
Nautical Twilight 5:13 AM EST 6:49 PM EST
Astronomical Twilight 4:41 AM EST 7:21 PM EST
Moon 3:58 AM EST (3/8) 2:39 PM EST (3/8)
Length of Visible Light 12h 31m
Length of Day
11h 35m
Waning Crescent, 12% of the Moon is Illuminated
Mar 8
Waning Crescent
Mar 11
New
Mar 19
First Quarter
Mar 27
Full
Apr 3
Last Quarter

Hourly Weather History & Observations

Time (EST) Temp. Windchill Dew Point Humidity Pressure Visibility Wind Dir Wind Speed Gust Speed Precip Events Conditions
12:53 AM 33.1 °F 23.9 °F 30.9 °F 92% 30.01 in 1.2 mi North 12.7 mph - 0.01 in Snow Light Snow
1:53 AM 33.1 °F 23.4 °F 30.9 °F 92% 30.00 in 1.0 mi North 13.8 mph 24.2 mph 0.01 in Snow Light Snow
2:53 AM 33.1 °F 24.9 °F 30.9 °F 92% 29.97 in 1.0 mi North 10.4 mph - 0.01 in Snow Light Snow
3:23 AM 32.0 °F 21.6 °F 30.2 °F 93% 29.96 in 1.0 mi North 15.0 mph 20.7 mph 0.00 in Snow Light Snow
3:31 AM 32.0 °F 23.6 °F 30.2 °F 93% 29.97 in 0.8 mi North 10.4 mph 20.7 mph 0.01 in Snow Light Snow
3:53 AM 32.0 °F 22.5 °F 30.9 °F 96% 29.97 in 0.5 mi North 12.7 mph - 0.02 in Fog , Snow Snow
4:53 AM 32.0 °F 23.6 °F 30.9 °F 96% 29.96 in 1.0 mi North 10.4 mph - 0.04 in Snow Light Snow
5:44 AM 32.0 °F 23.6 °F 30.2 °F 93% 29.95 in 1.2 mi North 10.4 mph 21.9 mph 0.00 in Snow Light Snow
5:53 AM 32.0 °F 23.0 °F 30.9 °F 96% 29.96 in 1.0 mi North 11.5 mph - 0.00 in Snow Light Snow
6:32 AM 32.0 °F 22.1 °F 30.2 °F 93% 29.97 in 0.8 mi North 13.8 mph 20.7 mph 0.01 in Snow Light Snow
6:42 AM 32.0 °F 22.5 °F 30.2 °F 93% 29.97 in 0.5 mi North 12.7 mph 20.7 mph 0.02 in Fog , Snow Snow
6:49 AM 32.0 °F 22.1 °F 30.2 °F 93% 29.97 in 0.5 mi North 13.8 mph 20.7 mph 0.02 in Fog , Snow Snow
6:53 AM 32.0 °F 21.2 °F 30.0 °F 92% 29.97 in 0.5 mi North 16.1 mph 23.0 mph 0.02 in Fog , Snow Snow
7:53 AM 32.0 °F 22.5 °F 30.0 °F 92% 29.99 in 0.5 mi North 12.7 mph 20.7 mph 0.00 in Fog , Snow Snow
8:09 AM 32.0 °F 24.2 °F 30.2 °F 93% 29.99 in 0.2 mi North 9.2 mph 18.4 mph 0.01 in Fog , Snow Snow
8:53 AM 32.0 °F 23.0 °F 30.9 °F 96% 29.99 in 0.5 mi North 11.5 mph 21.9 mph 0.02 in Fog , Snow Snow
9:53 AM 32.0 °F 22.5 °F 30.9 °F 96% 29.99 in 0.2 mi North 12.7 mph 23.0 mph 0.03 in Fog , Snow Heavy Snow
10:53 AM 33.1 °F 23.0 °F 30.9 °F 92% 30.00 in 0.2 mi North 15.0 mph 21.9 mph 0.04 in Fog , Snow Snow
11:53 AM 34.0 °F 26.6 °F 32.0 °F 92% 30.01 in 0.8 mi North 9.2 mph 18.4 mph 0.01 in Snow Light Snow
12:03 PM 33.8 °F 25.8 °F 32.0 °F 93% 30.01 in 1.0 mi North 10.4 mph 17.3 mph 0.00 in Snow Light Snow
12:15 PM 33.8 °F 24.8 °F 32.0 °F 93% 30.01 in 0.8 mi North 12.7 mph 21.9 mph 0.00 in Snow Light Snow
12:22 PM 33.8 °F 24.3 °F 32.0 °F 93% 30.00 in 0.8 mi North 13.8 mph 18.4 mph 0.00 in Snow Light Snow
12:53 PM 34.0 °F 25.5 °F 32.0 °F 92% 30.00 in 0.8 mi North 11.5 mph 23.0 mph 0.00 in Snow Light Snow
1:32 PM 33.8 °F 26.4 °F 32.0 °F 93% 30.01 in 0.8 mi North 9.2 mph - 0.01 in Snow Light Snow
1:34 PM 33.8 °F 25.8 °F 32.0 °F 93% 30.01 in 1.0 mi North 10.4 mph - 0.01 in Snow Light Snow
1:53 PM 35.1 °F 26.4 °F 32.0 °F 89% 30.01 in 2.5 mi North 12.7 mph - 0.01 in Snow Light Snow
2:01 PM 35.6 °F 26.6 °F 32.0 °F 87% 30.01 in 4.0 mi NNE 13.8 mph - 0.00 in Snow Light Snow
2:18 PM 35.6 °F 27.5 °F 32.0 °F 87% 30.01 in 8.0 mi North 11.5 mph - 0.00 in Snow Light Snow
2:53 PM 37.0 °F 29.8 °F 30.9 °F 79% 30.03 in 10.0 mi NNE 10.4 mph - 0.00 in   Mostly Cloudy
3:53 PM 39.0 °F 30.6 °F 27.0 °F 62% 30.04 in 10.0 mi North 15.0 mph - N/A   Overcast
4:53 PM 39.9 °F 33.4 °F 26.1 °F 58% 30.07 in 10.0 mi North 10.4 mph - N/A   Overcast
5:53 PM 39.9 °F 32.9 °F 25.0 °F 55% 30.09 in 10.0 mi North 11.5 mph 18.4 mph N/A   Mostly Cloudy
6:53 PM 39.9 °F 33.9 °F 25.0 °F 55% 30.12 in 10.0 mi North 9.2 mph - N/A   Clear
7:53 PM 39.9 °F 35.8 °F 26.1 °F 58% 30.14 in 10.0 mi North 5.8 mph - N/A   Overcast
8:53 PM 41.0 °F 34.3 °F 25.0 °F 53% 30.15 in 10.0 mi North 11.5 mph 18.4 mph N/A   Clear
9:53 PM 39.9 °F 33.4 °F 24.1 °F 53% 30.16 in 10.0 mi North 10.4 mph - N/A   Clear
10:53 PM 39.0 °F 32.3 °F 24.1 °F 55% 30.16 in 10.0 mi North 10.4 mph 17.3 mph N/A   Clear
11:53 PM 39.0 °F 32.3 °F 24.1 °F 55% 30.17 in 10.0 mi North 10.4 mph - N/A   Clear